Time,TemperatureF,DewpointF,PressureIn,WindDirection,WindDirectionDegrees,WindSpeedMPH,WindSpeedGustMPH,Humidity,HourlyPrecipIn,Conditions,Clouds,dailyrainin,SoftwareType,DateUTC
2013-06-26 00:01:00,86.1,66.9,29.77,South,186,2.0,6.0,53,0.00,,,0.00,WeatherCatV1.15B25,2013-06-26 05:01:00,
2013-06-26 00:06:00,85.9,66.7,29.77,SW,219,0.0,5.0,53,0.00,,,0.00,WeatherCatV1.15B25,2013-06-26 05:06:00,
2013-06-26 00:11:00,85.8,66.7,29.77,South,185,0.0,4.0,53,0.00,,,0.00,WeatherCatV1.15B25,2013-06-26 05:11:00,
2013-06-26 00:16:00,85.7,67.1,29.78,South,169,1.0,1.0,54,0.00,,,0.00,WeatherCatV1.15B25,2013-06-26 05:16:00,
2013-06-26 00:21:00,85.5,66.9,29.78,SSW,208,0.0,2.0,54,0.00,,,0.00,WeatherCatV1.15B25,2013-06-26 05:21:00,
2013-06-26 00:26:00,85.3,66.7,29.78,SSW,200,0.0,9.0,54,0.00,,,0.00,WeatherCatV1.15B25,2013-06-26 05:26:00,
2013-06-26 00:31:00,85.1,66.6,29.78,South,175,3.0,3.0,54,0.00,,,0.00,WeatherCatV1.15B25,2013-06-26 05:31:00,
2013-06-26 00:36:00,85.0,67.0,29.78,SSW,197,0.0,7.0,55,0.00,,,0.00,WeatherCatV1.15B25,2013-06-26 05:36:00,
2013-06-26 00:41:00,84.8,66.8,29.78,SSE,165,0.0,3.0,55,0.00,,,0.00,WeatherCatV1.15B25,2013-06-26 05:41:00,
2013-06-26 00:46:00,84.5,66.5,29.79,SSW,194,0.0,0.0,55,0.00,,,0.00,WeatherCatV1.15B25,2013-06-26 05:46:00,
2013-06-26 00:51:00,84.3,66.9,29.79,South,184,0.0,3.0,56,0.00,,,0.00,WeatherCatV1.15B25,2013-06-26 05:51:00,
2013-06-26 00:56:00,84.1,66.7,29.79,SSW,201,0.0,7.0,56,0.00,,,0.00,WeatherCatV1.15B25,2013-06-26 05:56:00,
2013-06-26 01:01:00,83.9,67.0,29.79,South,180,0.0,6.0,57,0.00,,,0.00,WeatherCatV1.15B25,2013-06-26 06:01:00,
2013-06-26 01:06:00,83.7,66.8,29.79,SW,223,0.0,1.0,57,0.00,,,0.00,WeatherCatV1.15B25,2013-06-26 06:06:00,
2013-06-26 01:11:00,83.6,66.2,29.79,WSW,239,4.0,5.0,56,0.00,,,0.00,WeatherCatV1.15B25,2013-06-26 06:11:00,
2013-06-26 01:16:00,83.5,66.6,29.78,South,178,0.0,5.0,57,0.00,,,0.00,WeatherCatV1.15B25,2013-06-26 06:16:00,
2013-06-26 01:21:00,83.4,66.5,29.78,SSW,199,0.0,5.0,57,0.00,,,0.00,WeatherCatV1.15B25,2013-06-26 06:21:00,
2013-06-26 01:26:00,83.4,66.5,29.78,SW,232,5.0,15.0,57,0.00,,,0.00,WeatherCatV1.15B25,2013-06-26 06:26:00,
2013-06-26 01:31:00,83.3,66.9,29.78,SE,140,0.0,6.0,58,0.00,,,0.00,WeatherCatV1.15B25,2013-06-26 06:31:00,
2013-06-26 01:36:00,83.2,66.9,29.78,SW,220,0.0,10.0,58,0.00,,,0.00,WeatherCatV1.15B25,2013-06-26 06:36:00,
2013-06-26 01:41:00,83.2,66.4,29.78,SE,146,3.0,6.0,57,0.00,,,0.00,WeatherCatV1.15B25,2013-06-26 06:41:00,
2013-06-26 01:46:00,83.1,66.8,29.78,SSW,212,0.0,5.0,58,0.00,,,0.00,WeatherCatV1.15B25,2013-06-26 06:46:00,
2013-06-26 01:51:00,82.9,66.6,29.78,South,183,4.0,9.0,58,0.00,,,0.00,WeatherCatV1.15B25,2013-06-26 06:51:00,
2013-06-26 01:56:00,82.8,67.0,29.78,SSW,196,0.0,2.0,59,0.00,,,0.00,WeatherCatV1.15B25,2013-06-26 06:56:00,
2013-06-26 02:01:00,82.6,66.8,29.78,South,180,0.0,10.0,59,0.00,,,0.00,WeatherCatV1.15B25,2013-06-26 07:01:00,
2013-06-26 02:06:00,82.5,66.7,29.78,South,176,0.0,4.0,59,0.00,,,0.00,WeatherCatV1.15B25,2013-06-26 07:06:00,
2013-06-26 02:11:00,82.3,66.5,29.78,SSW,194,2.0,12.0,59,0.00,,,0.00,WeatherCatV1.15B25,2013-06-26 07:11:00,
2013-06-26 02:16:00,82.2,66.9,29.78,South,171,7.0,7.0,60,0.00,,,0.00,WeatherCatV1.15B25,2013-06-26 07:16:00,
2013-06-26 02:21:00,82.0,66.7,29.78,South,190,0.0,5.0,60,0.00,,,0.00,WeatherCatV1.15B25,2013-06-26 07:21:00,
2013-06-26 02:26:00,81.9,66.6,29.78,SE,125,0.0,12.0,60,0.00,,,0.00,WeatherCatV1.15B25,2013-06-26 07:26:00,
2013-06-26 02:31:00,81.8,67.0,29.77,WSW,248,0.0,5.0,61,0.00,,,0.00,WeatherCatV1.15B25,2013-06-26 07:31:00,
2013-06-26 02:36:00,81.7,66.9,29.77,SW,221,2.0,5.0,61,0.00,,,0.00,WeatherCatV1.15B25,2013-06-26 07:36:00,
2013-06-26 02:41:00,81.6,67.3,29.77,SSE,163,0.0,6.0,62,0.00,,,0.00,WeatherCatV1.15B25,2013-06-26 07:41:00,
2013-06-26 02:46:00,81.5,67.2,29.77,SSW,202,0.0,6.0,62,0.00,,,0.00,WeatherCatV1.15B25,2013-06-26 07:46:00,
2013-06-26 02:51:00,81.3,67.5,29.77,SW,216,0.0,7.0,63,0.00,,,0.00,WeatherCatV1.15B25,2013-06-26 07:51:00,
2013-06-26 02:56:00,81.1,67.3,29.77,SSW,196,1.0,7.0,63,0.00,,,0.00,WeatherCatV1.15B25,2013-06-26 07:56:00,
2013-06-26 03:01:00,81.0,67.2,29.77,SSW,205,0.0,6.0,63,0.00,,,0.00,WeatherCatV1.15B25,2013-06-26 08:01:00,
2013-06-26 03:06:00,80.9,67.1,29.77,South,187,0.0,10.0,63,0.00,,,0.00,WeatherCatV1.15B25,2013-06-26 08:06:00,
2013-06-26 03:11:00,80.8,67.5,29.77,SSW,200,0.0,2.0,64,0.00,,,0.00,WeatherCatV1.15B25,2013-06-26 08:11:00,
2013-06-26 03:16:00,80.6,67.3,29.77,WSW,251,0.0,4.0,64,0.00,,,0.00,WeatherCatV1.15B25,2013-06-26 08:16:00,
2013-06-26 03:21:00,80.5,67.6,29.77,South,176,3.0,7.0,65,0.00,,,0.00,WeatherCatV1.15B25,2013-06-26 08:21:00,
2013-06-26 03:26:00,80.4,68.0,29.77,South,180,0.0,0.0,66,0.00,,,0.00,WeatherCatV1.15B25,2013-06-26 08:26:00,
2013-06-26 03:31:00,80.3,67.9,29.77,SW,232,0.0,9.0,66,0.00,,,0.00,WeatherCatV1.15B25,2013-06-26 08:31:00,
2013-06-26 03:36:00,80.1,68.1,29.77,SSW,196,0.0,4.0,67,0.00,,,0.00,WeatherCatV1.15B25,2013-06-26 08:36:00,
2013-06-26 03:41:00,80.0,68.5,29.77,SE,130,0.0,10.0,68,0.00,,,0.00,WeatherCatV1.15B25,2013-06-26 08:41:00,
2013-06-26 03:46:00,79.8,68.3,29.77,SSE,161,0.0,3.0,68,0.00,,,0.00,WeatherCatV1.15B25,2013-06-26 08:46:00,
2013-06-26 03:51:00,79.7,68.6,29.77,SW,231,0.0,3.0,69,0.00,,,0.00,WeatherCatV1.15B25,2013-06-26 08:51:00,
2013-06-26 03:56:00,79.6,68.5,29.77,SSW,212,0.0,7.0,69,0.00,,,0.00,WeatherCatV1.15B25,2013-06-26 08:56:00,
2013-06-26 04:01:00,79.5,68.8,29.78,SSW,198,0.0,2.0,70,0.00,,,0.00,WeatherCatV1.15B25,2013-06-26 09:01:00,
2013-06-26 04:06:00,79.4,68.7,29.78,WSW,241,0.0,9.0,70,0.00,,,0.00,WeatherCatV1.15B25,2013-06-26 09:06:00,
2013-06-26 04:11:00,79.3,69.1,29.78,SSW,194,4.0,4.0,71,0.00,,,0.00,WeatherCatV1.15B25,2013-06-26 09:11:00,
2013-06-26 04:16:00,79.3,69.1,29.78,SSE,157,4.0,9.0,71,0.00,,,0.00,WeatherCatV1.15B25,2013-06-26 09:16:00,
2013-06-26 04:21:00,79.1,69.3,29.78,SSW,199,0.0,9.0,72,0.00,,,0.00,WeatherCatV1.15B25,2013-06-26 09:21:00,
2013-06-26 04:26:00,79.0,69.2,29.78,South,187,1.0,9.0,72,0.00,,,0.00,WeatherCatV1.15B25,2013-06-26 09:26:00,
2013-06-26 04:31:00,78.9,69.5,29.78,South,178,6.0,11.0,73,0.00,,,0.00,WeatherCatV1.15B25,2013-06-26 09:31:00,
2013-06-26 04:36:00,78.8,69.4,29.78,SSW,192,0.0,3.0,73,0.00,,,0.00,WeatherCatV1.15B25,2013-06-26 09:36:00,
2013-06-26 04:41:00,78.7,69.7,29.78,SW,224,0.0,0.0,74,0.00,,,0.00,WeatherCatV1.15B25,2013-06-26 09:41:00,
2013-06-26 04:46:00,78.6,69.6,29.78,SSW,194,1.0,11.0,74,0.00,,,0.00,WeatherCatV1.15B25,2013-06-26 09:46:00,
2013-06-26 04:51:00,78.5,69.5,29.78,SSW,200,0.0,6.0,74,0.00,,,0.00,WeatherCatV1.15B25,2013-06-26 09:51:00,
2013-06-26 04:56:00,78.4,69.8,29.78,SSW,212,0.0,4.0,75,0.00,,,0.00,WeatherCatV1.15B25,2013-06-26 09:56:00,
2013-06-26 05:01:00,78.3,69.7,29.79,SSW,202,0.0,7.0,75,0.00,,,0.00,WeatherCatV1.15B25,2013-06-26 10:01:00,
2013-06-26 05:06:00,78.2,70.0,29.79,SSW,210,1.0,4.0,76,0.00,,,0.00,WeatherCatV1.15B25,2013-06-26 10:06:00,
2013-06-26 05:11:00,78.1,69.9,29.79,South,191,0.0,6.0,76,0.00,,,0.00,WeatherCatV1.15B25,2013-06-26 10:11:00,
2013-06-26 05:16:00,78.0,70.2,29.79,South,181,0.0,10.0,77,0.00,,,0.00,WeatherCatV1.15B25,2013-06-26 10:16:00,
2013-06-26 05:21:00,77.9,70.1,29.79,SSW,196,0.0,3.0,77,0.00,,,0.00,WeatherCatV1.15B25,2013-06-26 10:21:00,
2013-06-26 05:26:00,77.8,70.4,29.79,SSW,211,0.0,10.0,78,0.00,,,0.00,WeatherCatV1.15B25,2013-06-26 10:26:00,
2013-06-26 05:31:00,77.7,70.3,29.79,SW,234,3.0,4.0,78,0.00,,,0.00,WeatherCatV1.15B25,2013-06-26 10:31:00,
2013-06-26 05:36:00,77.5,70.5,29.79,SSE,155,0.0,3.0,79,0.00,,,0.00,WeatherCatV1.15B25,2013-06-26 10:36:00,
2013-06-26 05:41:00,77.5,70.5,29.79,SW,234,7.0,11.0,79,0.00,,,0.00,WeatherCatV1.15B25,2013-06-26 10:41:00,
2013-06-26 05:46:00,77.4,70.7,29.80,SSW,211,1.0,6.0,80,0.00,,,0.00,WeatherCatV1.15B25,2013-06-26 10:46:00,
2013-06-26 05:51:00,77.3,70.6,29.80,SSE,168,0.0,11.0,80,0.00,,,0.00,WeatherCatV1.15B25,2013-06-26 10:51:00,
2013-06-26 05:56:00,77.2,70.9,29.80,SW,229,1.0,11.0,81,0.00,,,0.00,WeatherCatV1.15B25,2013-06-26 10:56:00,
2013-06-26 06:01:00,77.1,70.8,29.80,SSW,207,1.0,4.0,81,0.00,,,0.00,WeatherCatV1.15B25,2013-06-26 11:01:00,
2013-06-26 06:06:00,77.1,71.2,29.80,SSW,193,0.0,2.0,82,0.00,,,0.00,WeatherCatV1.15B25,2013-06-26 11:06:00,
2013-06-26 06:11:00,77.0,71.1,29.80,SW,219,7.0,12.0,82,0.00,,,0.00,WeatherCatV1.15B25,2013-06-26 11:11:00,
2013-06-26 06:16:00,76.9,71.3,29.81,SSW,205,3.0,7.0,83,0.00,,,0.00,WeatherCatV1.15B25,2013-06-26 11:16:00,
2013-06-26 06:21:00,76.8,71.2,29.81,South,186,2.0,6.0,83,0.00,,,0.00,WeatherCatV1.15B25,2013-06-26 11:21:00,
2013-06-26 06:26:00,76.7,71.1,29.81,SSW,202,7.0,10.0,83,0.00,,,0.00,WeatherCatV1.15B25,2013-06-26 11:26:00,
2013-06-26 06:31:00,76.7,71.5,29.82,SW,231,0.0,4.0,84,0.00,,,0.00,WeatherCatV1.15B25,2013-06-26 11:31:00,
2013-06-26 06:36:00,76.6,71.4,29.82,SSW,209,0.0,0.0,84,0.00,,,0.00,WeatherCatV1.15B25,2013-06-26 11:36:00,
2013-06-26 06:41:00,76.5,71.3,29.82,SSW,205,0.0,1.0,84,0.00,,,0.00,WeatherCatV1.15B25,2013-06-26 11:41:00,
2013-06-26 06:46:00,76.4,71.5,29.83,West,259,2.0,6.0,85,0.00,,,0.00,WeatherCatV1.15B25,2013-06-26 11:46:00,
2013-06-26 06:51:00,76.4,71.5,29.83,SSE,165,0.0,5.0,85,0.00,,,0.00,WeatherCatV1.15B25,2013-06-26 11:51:00,
2013-06-26 06:56:00,76.4,71.5,29.83,South,188,6.0,6.0,85,0.00,,,0.00,WeatherCatV1.15B25,2013-06-26 11:56:00,
2013-06-26 07:01:00,76.5,71.6,29.83,SW,223,4.0,5.0,85,0.00,,,0.00,WeatherCatV1.15B25,2013-06-26 12:01:00,
2013-06-26 07:06:00,76.5,72.0,29.83,South,189,3.0,9.0,86,0.00,,,0.00,WeatherCatV1.15B25,2013-06-26 12:06:00,
2013-06-26 07:11:00,76.6,71.7,29.83,South,186,4.0,5.0,85,0.00,,,0.00,WeatherCatV1.15B25,2013-06-26 12:11:00,
2013-06-26 07:16:00,76.7,71.8,29.84,WSW,241,0.0,1.0,85,0.00,,,0.00,WeatherCatV1.15B25,2013-06-26 12:16:00,
2013-06-26 07:21:00,76.8,71.9,29.84,SE,128,0.0,1.0,85,0.00,,,0.00,WeatherCatV1.15B25,2013-06-26 12:21:00,
2013-06-26 07:26:00,77.0,72.1,29.84,South,171,1.0,6.0,85,0.00,,,0.00,WeatherCatV1.15B25,2013-06-26 12:26:00,
2013-06-26 07:31:00,77.1,71.9,29.84,SSE,168,6.0,9.0,84,0.00,,,0.00,WeatherCatV1.15B25,2013-06-26 12:31:00,
2013-06-26 07:36:00,77.3,72.1,29.84,South,184,3.0,13.0,84,0.00,,,0.00,WeatherCatV1.15B25,2013-06-26 12:36:00,
2013-06-26 07:41:00,77.4,72.2,29.84,SSW,194,4.0,5.0,84,0.00,,,0.00,WeatherCatV1.15B25,2013-06-26 12:41:00,
2013-06-26 07:46:00,77.6,72.4,29.85,South,188,4.0,9.0,84,0.00,,,0.00,WeatherCatV1.15B25,2013-06-26 12:46:00,
2013-06-26 07:51:00,77.7,72.1,29.85,South,182,1.0,7.0,83,0.00,,,0.00,WeatherCatV1.15B25,2013-06-26 12:51:00,
2013-06-26 07:56:00,77.9,71.9,29.85,SSW,211,5.0,11.0,82,0.00,,,0.00,WeatherCatV1.15B25,2013-06-26 12:56:00,
2013-06-26 08:01:00,78.1,72.5,29.86,SSE,163,3.0,9.0,83,0.00,,,0.00,WeatherCatV1.15B25,2013-06-26 13:01:00,
2013-06-26 08:06:00,78.3,72.3,29.86,SSW,196,4.0,4.0,82,0.00,,,0.00,WeatherCatV1.15B25,2013-06-26 13:06:00,
2013-06-26 08:11:00,78.4,72.4,29.86,WSW,238,0.0,1.0,82,0.00,,,0.00,WeatherCatV1.15B25,2013-06-26 13:11:00,
2013-06-26 08:16:00,78.7,72.7,29.86,South,190,3.0,9.0,82,0.00,,,0.00,WeatherCatV1.15B25,2013-06-26 13:16:00,
2013-06-26 08:21:00,78.9,72.6,29.86,SE,135,6.0,9.0,81,0.00,,,0.00,WeatherCatV1.15B25,2013-06-26 13:21:00,
2013-06-26 08:26:00,79.2,72.1,29.86,SW,232,0.0,15.0,79,0.00,,,0.00,WeatherCatV1.15B25,2013-06-26 13:26:00,
2013-06-26 08:31:00,79.3,72.2,29.86,SW,221,5.0,11.0,79,0.00,,,0.00,WeatherCatV1.15B25,2013-06-26 13:31:00,
2013-06-26 08:36:00,79.5,72.4,29.86,South,191,5.0,7.0,79,0.00,,,0.00,WeatherCatV1.15B25,2013-06-26 13:36:00,
2013-06-26 08:41:00,79.7,72.2,29.86,South,169,3.0,6.0,78,0.00,,,0.00,WeatherCatV1.15B25,2013-06-26 13:41:00,
2013-06-26 08:46:00,80.0,72.5,29.87,SW,219,10.0,16.0,78,0.00,,,0.00,WeatherCatV1.15B25,2013-06-26 13:46:00,
2013-06-26 08:51:00,80.2,72.7,29.87,SSW,202,4.0,12.0,78,0.00,,,0.00,WeatherCatV1.15B25,2013-06-26 13:51:00,
2013-06-26 08:56:00,80.4,72.1,29.87,SSE,153,7.0,10.0,76,0.00,,,0.00,WeatherCatV1.15B25,2013-06-26 13:56:00,
2013-06-26 09:01:00,80.6,72.3,29.87,SSE,160,3.0,13.0,76,0.00,,,0.00,WeatherCatV1.15B25,2013-06-26 14:01:00,
2013-06-26 09:06:00,80.9,72.2,29.87,WSW,238,4.0,11.0,75,0.00,,,0.00,WeatherCatV1.15B25,2013-06-26 14:06:00,
2013-06-26 09:11:00,81.2,72.5,29.87,SW,223,0.0,6.0,75,0.00,,,0.00,WeatherCatV1.15B25,2013-06-26 14:11:00,
2013-06-26 09:16:00,81.5,72.8,29.88,SSW,211,2.0,2.0,75,0.00,,,0.00,WeatherCatV1.15B25,2013-06-26 14:16:00,
2013-06-26 09:21:00,81.7,72.6,29.88,South,190,5.0,14.0,74,0.00,,,0.00,WeatherCatV1.15B25,2013-06-26 14:21:00,
2013-06-26 09:26:00,81.9,72.4,29.88,WSW,237,3.0,9.0,73,0.00,,,0.00,WeatherCatV1.15B25,2013-06-26 14:26:00,
2013-06-26 09:31:00,82.0,72.5,29.88,SW,223,0.0,13.0,73,0.00,,,0.00,WeatherCatV1.15B25,2013-06-26 14:31:00,
2013-06-26 09:36:00,82.4,72.8,29.88,SSW,211,7.0,20.0,73,0.00,,,0.00,WeatherCatV1.15B25,2013-06-26 14:36:00,
2013-06-26 09:41:00,82.9,72.9,29.88,SW,232,5.0,14.0,72,0.00,,,0.00,WeatherCatV1.15B25,2013-06-26 14:41:00,
2013-06-26 09:46:00,83.4,73.4,29.88,South,175,0.0,2.0,72,0.00,,,0.00,WeatherCatV1.15B25,2013-06-26 14:46:00,
2013-06-26 09:51:00,84.1,73.2,29.88,WSW,240,3.0,13.0,70,0.00,,,0.00,WeatherCatV1.15B25,2013-06-26 14:51:00,
2013-06-26 09:56:00,84.3,73.0,29.88,West,269,1.0,9.0,69,0.00,,,0.00,WeatherCatV1.15B25,2013-06-26 14:56:00,
2013-06-26 10:01:00,84.8,73.5,29.88,SSW,211,0.0,13.0,69,0.00,,,0.00,WeatherCatV1.15B25,2013-06-26 15:01:00,
2013-06-26 10:06:00,85.2,73.9,29.88,WSW,241,4.0,9.0,69,0.00,,,0.00,WeatherCatV1.15B25,2013-06-26 15:06:00,
2013-06-26 10:11:00,85.6,73.8,29.88,SSW,211,4.0,9.0,68,0.00,,,0.00,WeatherCatV1.15B25,2013-06-26 15:11:00,
2013-06-26 10:16:00,85.9,73.6,29.88,WSW,246,1.0,7.0,67,0.00,,,0.00,WeatherCatV1.15B25,2013-06-26 15:16:00,
2013-06-26 10:21:00,86.1,73.8,29.88,South,182,0.0,3.0,67,0.00,,,0.00,WeatherCatV1.15B25,2013-06-26 15:21:00,
2013-06-26 10:26:00,86.6,73.9,29.88,South,170,2.0,10.0,66,0.00,,,0.00,WeatherCatV1.15B25,2013-06-26 15:26:00,
2013-06-26 10:31:00,86.8,73.6,29.87,South,182,3.0,9.0,65,0.00,,,0.00,WeatherCatV1.15B25,2013-06-26 15:31:00,
2013-06-26 10:36:00,87.2,74.0,29.87,SSW,207,1.0,11.0,65,0.00,,,0.00,WeatherCatV1.15B25,2013-06-26 15:36:00,
2013-06-26 10:41:00,87.4,73.7,29.87,WSW,240,5.0,10.0,64,0.00,,,0.00,WeatherCatV1.15B25,2013-06-26 15:41:00,
2013-06-26 10:46:00,87.5,73.8,29.87,SW,223,0.0,6.0,64,0.00,,,0.00,WeatherCatV1.15B25,2013-06-26 15:46:00,
2013-06-26 10:51:00,87.7,73.5,29.87,WSW,237,1.0,12.0,63,0.00,,,0.00,WeatherCatV1.15B25,2013-06-26 15:51:00,
2013-06-26 10:56:00,87.8,74.1,29.87,SSW,197,0.0,4.0,64,0.00,,,0.00,WeatherCatV1.15B25,2013-06-26 15:56:00,
2013-06-26 11:01:00,88.1,74.4,29.87,WSW,245,0.0,4.0,64,0.00,,,0.00,WeatherCatV1.15B25,2013-06-26 16:01:00,
2013-06-26 11:06:00,88.5,74.3,29.87,South,186,2.0,5.0,63,0.00,,,0.00,WeatherCatV1.15B25,2013-06-26 16:06:00,
2013-06-26 11:11:00,88.6,73.9,29.87,WSW,242,6.0,11.0,62,0.00,,,0.00,WeatherCatV1.15B25,2013-06-26 16:11:00,
2013-06-26 11:16:00,88.8,73.6,29.87,WSW,250,3.0,9.0,61,0.00,,,0.00,WeatherCatV1.15B25,2013-06-26 16:16:00,
2013-06-26 11:21:00,88.8,73.6,29.87,West,259,0.0,5.0,61,0.00,,,0.00,WeatherCatV1.15B25,2013-06-26 16:21:00,
2013-06-26 11:26:00,89.1,74.3,29.87,SW,220,4.0,4.0,62,0.00,,,0.00,WeatherCatV1.15B25,2013-06-26 16:26:00,
2013-06-26 11:31:00,89.6,73.8,29.87,SW,232,1.0,4.0,60,0.00,,,0.00,WeatherCatV1.15B25,2013-06-26 16:31:00,
2013-06-26 11:36:00,90.1,74.8,29.87,South,187,3.0,3.0,61,0.00,,,0.00,WeatherCatV1.15B25,2013-06-26 16:36:00,
2013-06-26 11:41:00,90.6,75.3,29.87,SSW,208,5.0,9.0,61,0.00,,,0.00,WeatherCatV1.15B25,2013-06-26 16:41:00,
2013-06-26 11:46:00,90.9,74.5,29.87,South,174,0.0,6.0,59,0.00,,,0.00,WeatherCatV1.15B25,2013-06-26 16:46:00,
2013-06-26 11:51:00,91.0,74.6,29.87,SW,217,5.0,5.0,59,0.00,,,0.00,WeatherCatV1.15B25,2013-06-26 16:51:00,
2013-06-26 11:56:00,90.8,73.4,29.87,West,271,2.0,2.0,57,0.00,,,0.00,WeatherCatV1.15B25,2013-06-26 16:56:00,
2013-06-26 12:01:00,91.0,74.1,29.87,South,187,0.0,7.0,58,0.00,,,0.00,WeatherCatV1.15B25,2013-06-26 17:01:00,
2013-06-26 12:06:00,91.2,74.3,29.87,SW,231,1.0,3.0,58,0.00,,,0.00,WeatherCatV1.15B25,2013-06-26 17:06:00,
2013-06-26 12:11:00,91.5,73.5,29.87,WSW,247,4.0,11.0,56,0.00,,,0.00,WeatherCatV1.15B25,2013-06-26 17:11:00,
2013-06-26 12:16:00,91.6,73.6,29.87,SW,223,1.0,4.0,56,0.00,,,0.00,WeatherCatV1.15B25,2013-06-26 17:16:00,
2013-06-26 12:21:00,91.8,73.3,29.87,SW,217,2.0,11.0,55,0.00,,,0.00,WeatherCatV1.15B25,2013-06-26 17:21:00,
2013-06-26 12:26:00,91.9,73.9,29.87,SW,227,2.0,9.0,56,0.00,,,0.00,WeatherCatV1.15B25,2013-06-26 17:26:00,
2013-06-26 12:31:00,92.0,75.1,29.87,SW,232,0.0,6.0,58,0.00,,,0.00,WeatherCatV1.15B25,2013-06-26 17:31:00,
2013-06-26 12:36:00,92.3,74.3,29.87,South,172,2.0,4.0,56,0.00,,,0.00,WeatherCatV1.15B25,2013-06-26 17:36:00,
2013-06-26 12:41:00,92.5,73.4,29.87,SSW,213,0.0,5.0,54,0.00,,,0.00,WeatherCatV1.15B25,2013-06-26 17:41:00,
2013-06-26 12:46:00,92.6,73.5,29.86,SSW,200,5.0,6.0,54,0.00,,,0.00,WeatherCatV1.15B25,2013-06-26 17:46:00,
2013-06-26 12:51:00,92.8,74.2,29.86,SSW,204,0.0,9.0,55,0.00,,,0.00,WeatherCatV1.15B25,2013-06-26 17:51:00,
2013-06-26 12:56:00,92.9,73.8,29.86,SSW,205,4.0,7.0,54,0.00,,,0.00,WeatherCatV1.15B25,2013-06-26 17:56:00,
2013-06-26 13:01:00,92.9,73.8,29.86,WSW,255,1.0,5.0,54,0.00,,,0.00,WeatherCatV1.15B25,2013-06-26 18:01:00,
2013-06-26 13:06:00,92.9,73.2,29.86,SSW,211,3.0,10.0,53,0.00,,,0.00,WeatherCatV1.15B25,2013-06-26 18:06:00,
2013-06-26 13:11:00,93.0,73.8,29.86,SW,227,2.0,4.0,54,0.00,,,0.00,WeatherCatV1.15B25,2013-06-26 18:11:00,
2013-06-26 13:16:00,93.1,73.4,29.85,SW,233,5.0,13.0,53,0.00,,,0.00,WeatherCatV1.15B25,2013-06-26 18:16:00,
2013-06-26 13:21:00,93.1,74.5,29.85,SSE,160,3.0,6.0,55,0.00,,,0.00,WeatherCatV1.15B25,2013-06-26 18:21:00,
2013-06-26 13:26:00,93.3,74.1,29.85,SW,221,0.0,7.0,54,0.00,,,0.00,WeatherCatV1.15B25,2013-06-26 18:26:00,
2013-06-26 13:31:00,93.9,75.2,29.84,WSW,238,1.0,3.0,55,0.00,,,0.00,WeatherCatV1.15B25,2013-06-26 18:31:00,
2013-06-26 13:36:00,94.3,74.5,29.84,SW,222,0.0,9.0,53,0.00,,,0.00,WeatherCatV1.15B25,2013-06-26 18:36:00,
2013-06-26 13:41:00,94.6,74.8,29.84,South,180,0.0,10.0,53,0.00,,,0.00,WeatherCatV1.15B25,2013-06-26 18:41:00,
2013-06-26 13:46:00,94.7,73.7,29.84,SSW,192,1.0,6.0,51,0.00,,,0.00,WeatherCatV1.15B25,2013-06-26 18:46:00,
2013-06-26 13:51:00,94.9,75.6,29.84,SW,215,1.0,14.0,54,0.00,,,0.00,WeatherCatV1.15B25,2013-06-26 18:51:00,
2013-06-26 13:56:00,95.2,74.2,29.84,SSW,209,0.0,4.0,51,0.00,,,0.00,WeatherCatV1.15B25,2013-06-26 18:56:00,
2013-06-26 14:01:00,95.4,73.8,29.84,SW,215,0.0,3.0,50,0.00,,,0.00,WeatherCatV1.15B25,2013-06-26 19:01:00,
2013-06-26 14:06:00,95.4,74.9,29.84,SW,221,5.0,14.0,52,0.00,,,0.00,WeatherCatV1.15B25,2013-06-26 19:06:00,
2013-06-26 14:11:00,95.3,73.1,29.84,SW,216,1.0,6.0,49,0.00,,,0.00,WeatherCatV1.15B25,2013-06-26 19:11:00,
2013-06-26 14:16:00,95.4,73.8,29.83,SW,223,0.0,4.0,50,0.00,,,0.00,WeatherCatV1.15B25,2013-06-26 19:16:00,
2013-06-26 14:21:00,95.6,74.5,29.83,SSW,200,3.0,9.0,51,0.00,,,0.00,WeatherCatV1.15B25,2013-06-26 19:21:00,
2013-06-26 14:26:00,96.0,74.9,29.83,SSW,204,0.0,4.0,51,0.00,,,0.00,WeatherCatV1.15B25,2013-06-26 19:26:00,
2013-06-26 14:31:00,96.2,73.9,29.82,SSW,202,0.0,1.0,49,0.00,,,0.00,WeatherCatV1.15B25,2013-06-26 19:31:00,
2013-06-26 14:36:00,96.4,73.4,29.82,WSW,248,0.0,7.0,48,0.00,,,0.00,WeatherCatV1.15B25,2013-06-26 19:36:00,
2013-06-26 14:41:00,96.6,73.6,29.82,SW,234,7.0,13.0,48,0.00,,,0.00,WeatherCatV1.15B25,2013-06-26 19:41:00,
2013-06-26 14:46:00,96.7,74.9,29.81,SSW,200,3.0,9.0,50,0.00,,,0.00,WeatherCatV1.15B25,2013-06-26 19:46:00,
2013-06-26 14:51:00,96.8,73.8,29.81,West,269,0.0,7.0,48,0.00,,,0.00,WeatherCatV1.15B25,2013-06-26 19:51:00,
2013-06-26 14:56:00,96.9,74.5,29.81,WSW,258,2.0,5.0,49,0.00,,,0.00,WeatherCatV1.15B25,2013-06-26 19:56:00,
2013-06-26 15:01:00,97.0,74.6,29.81,South,178,0.0,7.0,49,0.00,,,0.00,WeatherCatV1.15B25,2013-06-26 20:01:00,
2013-06-26 15:06:00,97.2,74.2,29.81,SW,222,0.0,7.0,48,0.00,,,0.00,WeatherCatV1.15B25,2013-06-26 20:06:00,
2013-06-26 15:11:00,97.4,76.2,29.81,SW,219,3.0,4.0,51,0.00,,,0.00,WeatherCatV1.15B25,2013-06-26 20:11:00,
2013-06-26 15:16:00,97.6,73.3,29.81,SW,214,6.0,7.0,46,0.00,,,0.00,WeatherCatV1.15B25,2013-06-26 20:16:00,
2013-06-26 15:21:00,97.6,73.9,29.81,SW,226,1.0,5.0,47,0.00,,,0.00,WeatherCatV1.15B25,2013-06-26 20:21:00,
2013-06-26 15:26:00,97.8,73.4,29.81,West,269,3.0,7.0,46,0.00,,,0.00,WeatherCatV1.15B25,2013-06-26 20:26:00,
2013-06-26 15:31:00,98.2,75.1,29.81,SSW,196,3.0,4.0,48,0.00,,,0.00,WeatherCatV1.15B25,2013-06-26 20:31:00,
2013-06-26 15:36:00,98.5,74.1,29.81,South,186,5.0,9.0,46,0.00,,,0.00,WeatherCatV1.15B25,2013-06-26 20:36:00,
2013-06-26 15:41:00,98.7,74.3,29.81,NW,310,4.0,8.0,46,0.00,,,0.00,WeatherCatV1.15B25,2013-06-26 20:41:00,
2013-06-26 15:46:00,98.5,73.4,29.80,West,263,0.0,2.0,45,0.00,,,0.00,WeatherCatV1.15B25,2013-06-26 20:46:00,
2013-06-26 15:51:00,98.6,74.2,29.80,SW,229,3.0,4.0,46,0.00,,,0.00,WeatherCatV1.15B25,2013-06-26 20:51:00,
2013-06-26 15:56:00,98.7,74.9,29.80,SSW,207,0.0,5.0,47,0.00,,,0.00,WeatherCatV1.15B25,2013-06-26 20:56:00,
2013-06-26 16:01:00,98.9,74.4,29.79,SSW,198,0.0,4.0,46,0.00,,,0.00,WeatherCatV1.15B25,2013-06-26 21:01:00,
2013-06-26 16:06:00,99.0,75.8,29.79,SSW,213,0.0,2.0,48,0.00,,,0.00,WeatherCatV1.15B25,2013-06-26 21:06:00,
2013-06-26 16:11:00,99.1,74.6,29.79,SSW,209,2.0,2.0,46,0.00,,,0.00,WeatherCatV1.15B25,2013-06-26 21:11:00,
2013-06-26 16:16:00,99.1,74.6,29.79,West,267,0.0,2.0,46,0.00,,,0.00,WeatherCatV1.15B25,2013-06-26 21:16:00,
2013-06-26 16:21:00,99.3,74.8,29.79,SW,223,0.0,6.0,46,0.00,,,0.00,WeatherCatV1.15B25,2013-06-26 21:21:00,
2013-06-26 16:26:00,99.5,75.6,29.79,SSW,194,2.0,7.0,47,0.00,,,0.00,WeatherCatV1.15B25,2013-06-26 21:26:00,
2013-06-26 16:31:00,99.4,74.2,29.79,SSW,211,0.0,2.0,45,0.00,,,0.00,WeatherCatV1.15B25,2013-06-26 21:31:00,
2013-06-26 16:36:00,99.5,74.3,29.79,SSW,205,0.0,5.0,45,0.00,,,0.00,WeatherCatV1.15B25,2013-06-26 21:36:00,
2013-06-26 16:41:00,99.4,74.9,29.79,WSW,242,0.0,4.0,46,0.00,,,0.00,WeatherCatV1.15B25,2013-06-26 21:41:00,
2013-06-26 16:46:00,99.3,75.5,29.79,SW,219,3.0,3.0,47,0.00,,,0.00,WeatherCatV1.15B25,2013-06-26 21:46:00,
2013-06-26 16:51:00,99.3,74.1,29.79,SW,214,5.0,6.0,45,0.00,,,0.00,WeatherCatV1.15B25,2013-06-26 21:51:00,
2013-06-26 16:56:00,99.5,74.3,29.79,SW,217,1.0,3.0,45,0.00,,,0.00,WeatherCatV1.15B25,2013-06-26 21:56:00,
2013-06-26 17:01:00,99.7,74.5,29.79,WSW,248,0.0,1.0,45,0.00,,,0.00,WeatherCatV1.15B25,2013-06-26 22:01:00,
2013-06-26 17:06:00,99.9,74.7,29.79,South,175,0.0,5.0,45,0.00,,,0.00,WeatherCatV1.15B25,2013-06-26 22:06:00,
2013-06-26 17:11:00,100.0,73.4,29.79,SW,227,4.0,6.0,43,0.00,,,0.00,WeatherCatV1.15B25,2013-06-26 22:11:00,
2013-06-26 17:16:00,100.1,73.5,29.79,SW,221,0.0,2.0,43,0.00,,,0.00,WeatherCatV1.15B25,2013-06-26 22:16:00,
2013-06-26 17:21:00,100.1,74.2,29.79,SSW,211,0.0,2.0,44,0.00,,,0.00,WeatherCatV1.15B25,2013-06-26 22:21:00,
2013-06-26 17:26:00,99.9,74.7,29.79,SSW,209,4.0,6.0,45,0.00,,,0.00,WeatherCatV1.15B25,2013-06-26 22:26:00,
2013-06-26 17:31:00,99.8,74.6,29.78,SW,215,4.0,6.0,45,0.00,,,0.00,WeatherCatV1.15B25,2013-06-26 22:31:00,
2013-06-26 17:36:00,99.7,73.2,29.78,SW,224,0.0,6.0,43,0.00,,,0.00,WeatherCatV1.15B25,2013-06-26 22:36:00,
2013-06-26 17:41:00,99.5,73.7,29.78,SSW,207,3.0,6.0,44,0.00,,,0.00,WeatherCatV1.15B25,2013-06-26 22:41:00,
2013-06-26 17:46:00,99.2,73.4,29.78,SW,228,3.0,6.0,44,0.00,,,0.00,WeatherCatV1.15B25,2013-06-26 22:46:00,
2013-06-26 17:51:00,99.0,73.2,29.78,WNW,289,0.0,7.0,44,0.00,,,0.00,WeatherCatV1.15B25,2013-06-26 22:51:00,
2013-06-26 17:57:00,98.8,75.0,29.78,WSW,250,0.0,6.0,47,0.00,,,0.00,WeatherCatV1.15B25,2013-06-26 22:57:00,
2013-06-26 18:02:00,98.5,72.8,29.77,SSW,209,0.0,4.0,44,0.00,,,0.00,WeatherCatV1.15B25,2013-06-26 23:02:00,
2013-06-26 18:07:00,98.3,73.9,29.77,WSW,248,4.0,5.0,46,0.00,,,0.00,WeatherCatV1.15B25,2013-06-26 23:07:00,
2013-06-26 18:12:00,98.0,73.6,29.77,South,188,0.0,3.0,46,0.00,,,0.00,WeatherCatV1.15B25,2013-06-26 23:12:00,
2013-06-26 18:17:00,97.9,74.2,29.76,SSW,208,0.0,2.0,47,0.00,,,0.00,WeatherCatV1.15B25,2013-06-26 23:17:00,
2013-06-26 18:22:00,97.6,72.6,29.76,South,180,0.0,4.0,45,0.00,,,0.00,WeatherCatV1.15B25,2013-06-26 23:22:00,
2013-06-26 18:27:00,97.5,72.5,29.76,South,181,0.0,4.0,45,0.00,,,0.00,WeatherCatV1.15B25,2013-06-26 23:27:00,
2013-06-26 18:32:00,97.3,73.0,29.76,SSW,202,3.0,6.0,46,0.00,,,0.00,WeatherCatV1.15B25,2013-06-26 23:32:00,
2013-06-26 18:37:00,97.1,72.8,29.76,WSW,242,0.0,2.0,46,0.00,,,0.00,WeatherCatV1.15B25,2013-06-26 23:37:00,
2013-06-26 18:42:00,96.9,72.6,29.76,South,191,0.0,3.0,46,0.00,,,0.00,WeatherCatV1.15B25,2013-06-26 23:42:00,
2013-06-26 18:47:00,96.7,72.5,29.76,SSW,194,0.0,5.0,46,0.00,,,0.00,WeatherCatV1.15B25,2013-06-26 23:47:00,
2013-06-26 18:52:00,96.6,73.0,29.76,SSW,200,3.0,7.0,47,0.00,,,0.00,WeatherCatV1.15B25,2013-06-26 23:52:00,
2013-06-26 18:57:00,96.4,72.8,29.76,SSW,202,0.0,3.0,47,0.00,,,0.00,WeatherCatV1.15B25,2013-06-26 23:57:00,
2013-06-26 19:02:00,96.1,71.9,29.76,WSW,250,0.0,5.0,46,0.00,,,0.00,WeatherCatV1.15B25,2013-06-27 00:02:00,
2013-06-26 19:07:00,95.9,73.0,29.76,South,191,2.0,6.0,48,0.00,,,0.00,WeatherCatV1.15B25,2013-06-27 00:07:00,
2013-06-26 19:12:00,95.8,72.3,29.76,SSW,207,0.0,4.0,47,0.00,,,0.00,WeatherCatV1.15B25,2013-06-27 00:12:00,
2013-06-26 19:17:00,95.5,71.4,29.75,SSW,209,0.0,0.0,46,0.00,,,0.00,WeatherCatV1.15B25,2013-06-27 00:17:00,
2013-06-26 19:22:00,95.3,71.8,29.75,SSW,205,0.0,6.0,47,0.00,,,0.00,WeatherCatV1.15B25,2013-06-27 00:22:00,
2013-06-26 19:27:00,95.1,72.3,29.75,SW,215,0.0,0.0,48,0.00,,,0.00,WeatherCatV1.15B25,2013-06-27 00:27:00,
2013-06-26 19:32:00,94.9,72.7,29.76,SW,229,0.0,0.0,49,0.00,,,0.00,WeatherCatV1.15B25,2013-06-27 00:32:00,
2013-06-26 19:37:00,94.7,72.5,29.76,SSE,167,0.0,0.0,49,0.00,,,0.00,WeatherCatV1.15B25,2013-06-27 00:37:00,
2013-06-26 19:42:00,94.5,72.3,29.76,SW,224,0.0,2.0,49,0.00,,,0.00,WeatherCatV1.15B25,2013-06-27 00:42:00,
2013-06-26 19:47:00,94.2,72.7,29.76,SW,229,0.0,0.0,50,0.00,,,0.00,WeatherCatV1.15B25,2013-06-27 00:47:00,
2013-06-26 19:52:00,94.1,73.7,29.76,SSE,161,0.0,0.0,52,0.00,,,0.00,WeatherCatV1.15B25,2013-06-27 00:52:00,
2013-06-26 19:57:00,93.8,74.6,29.76,SSW,211,0.0,0.0,54,0.00,,,0.00,WeatherCatV1.15B25,2013-06-27 00:57:00,
2013-06-26 20:02:00,93.6,73.3,29.76,SSW,211,0.0,0.0,52,0.00,,,0.00,WeatherCatV1.15B25,2013-06-27 01:02:00,
2013-06-26 20:07:00,93.3,74.7,29.76,SSW,211,0.0,0.0,55,0.00,,,0.00,WeatherCatV1.15B25,2013-06-27 01:07:00,
2013-06-26 20:12:00,92.9,74.3,29.76,SSW,194,0.0,0.0,55,0.00,,,0.00,WeatherCatV1.15B25,2013-06-27 01:12:00,
2013-06-26 20:17:00,92.5,74.5,29.75,SSW,200,0.0,0.0,56,0.00,,,0.00,WeatherCatV1.15B25,2013-06-27 01:17:00,
2013-06-26 20:22:00,92.1,73.0,29.75,SSW,200,0.0,0.0,54,0.00,,,0.00,WeatherCatV1.15B25,2013-06-27 01:22:00,
2013-06-26 20:27:00,91.7,73.7,29.75,SSW,200,0.0,0.0,56,0.00,,,0.00,WeatherCatV1.15B25,2013-06-27 01:27:00,
2013-06-26 20:32:00,91.4,74.0,29.76,SSW,209,0.0,0.0,57,0.00,,,0.00,WeatherCatV1.15B25,2013-06-27 01:32:00,
2013-06-26 20:37:00,90.9,73.5,29.76,SSW,209,0.0,0.0,57,0.00,,,0.00,WeatherCatV1.15B25,2013-06-27 01:37:00,
2013-06-26 20:42:00,90.5,73.7,29.76,SSW,209,0.0,0.0,58,0.00,,,0.00,WeatherCatV1.15B25,2013-06-27 01:42:00,
2013-06-26 20:47:00,90.2,72.9,29.76,SSW,209,0.0,0.0,57,0.00,,,0.00,WeatherCatV1.15B25,2013-06-27 01:47:00,
2013-06-26 20:52:00,89.9,73.6,29.76,SSW,209,0.0,0.0,59,0.00,,,0.00,WeatherCatV1.15B25,2013-06-27 01:52:00,
2013-06-26 20:57:00,89.6,73.8,29.76,SSW,209,0.0,0.0,60,0.00,,,0.00,WeatherCatV1.15B25,2013-06-27 01:57:00,
2013-06-26 21:02:00,89.2,74.0,29.76,SSW,209,0.0,0.0,61,0.00,,,0.00,WeatherCatV1.15B25,2013-06-27 02:02:00,
2013-06-26 21:07:00,88.8,73.1,29.76,SSW,208,0.0,1.0,60,0.00,,,0.00,WeatherCatV1.15B25,2013-06-27 02:07:00,
2013-06-26 21:12:00,88.5,72.8,29.76,SSW,208,0.0,0.0,60,0.00,,,0.00,WeatherCatV1.15B25,2013-06-27 02:12:00,
2013-06-26 21:17:00,88.2,73.0,29.76,SSW,208,0.0,0.0,61,0.00,,,0.00,WeatherCatV1.15B25,2013-06-27 02:17:00,
2013-06-26 21:22:00,87.9,72.2,29.76,SSW,208,0.0,0.0,60,0.00,,,0.00,WeatherCatV1.15B25,2013-06-27 02:22:00,
2013-06-26 21:27:00,87.7,72.5,29.76,SSW,208,0.0,0.0,61,0.00,,,0.00,WeatherCatV1.15B25,2013-06-27 02:27:00,
2013-06-26 21:32:00,87.4,71.8,29.76,SSW,208,0.0,0.0,60,0.00,,,0.00,WeatherCatV1.15B25,2013-06-27 02:32:00,
2013-06-26 21:37:00,87.1,72.0,29.76,SSW,208,0.0,0.0,61,0.00,,,0.00,WeatherCatV1.15B25,2013-06-27 02:37:00,
2013-06-26 21:42:00,86.9,72.3,29.76,SE,132,0.0,0.0,62,0.00,,,0.00,WeatherCatV1.15B25,2013-06-27 02:42:00,
2013-06-26 21:47:00,86.6,71.5,29.77,SE,132,0.0,0.0,61,0.00,,,0.00,WeatherCatV1.15B25,2013-06-27 02:47:00,
2013-06-26 21:52:00,86.4,71.3,29.77,SE,143,0.0,0.0,61,0.00,,,0.00,WeatherCatV1.15B25,2013-06-27 02:52:00,
2013-06-26 21:57:00,86.2,71.6,29.77,SE,143,0.0,0.0,62,0.00,,,0.00,WeatherCatV1.15B25,2013-06-27 02:57:00,
2013-06-26 22:02:00,85.9,71.3,29.78,SE,142,0.0,0.0,62,0.00,,,0.00,WeatherCatV1.15B25,2013-06-27 03:02:00,
2013-06-26 22:07:00,85.8,71.7,29.78,SE,143,0.0,0.0,63,0.00,,,0.00,WeatherCatV1.15B25,2013-06-27 03:07:00,
2013-06-26 22:12:00,85.6,71.5,29.78,SE,142,0.0,0.0,63,0.00,,,0.00,WeatherCatV1.15B25,2013-06-27 03:12:00,
2013-06-26 22:17:00,85.4,71.8,29.78,SE,143,0.0,0.0,64,0.00,,,0.00,WeatherCatV1.15B25,2013-06-27 03:17:00,
2013-06-26 22:22:00,85.1,71.5,29.78,SE,143,0.0,0.0,64,0.00,,,0.00,WeatherCatV1.15B25,2013-06-27 03:22:00,
2013-06-26 22:27:00,84.9,70.9,29.78,SE,142,0.0,0.0,63,0.00,,,0.00,WeatherCatV1.15B25,2013-06-27 03:27:00,
2013-06-26 22:32:00,84.7,71.6,29.79,SE,142,0.0,0.0,65,0.00,,,0.00,WeatherCatV1.15B25,2013-06-27 03:32:00,
2013-06-26 22:37:00,84.5,70.5,29.79,SE,142,0.0,0.0,63,0.00,,,0.00,WeatherCatV1.15B25,2013-06-27 03:37:00,
2013-06-26 22:42:00,84.3,71.2,29.79,SE,142,0.0,0.0,65,0.00,,,0.00,WeatherCatV1.15B25,2013-06-27 03:42:00,
2013-06-26 22:47:00,84.1,71.0,29.80,SE,142,0.0,0.0,65,0.00,,,0.00,WeatherCatV1.15B25,2013-06-27 03:47:00,
2013-06-26 22:52:00,83.9,70.4,29.80,SE,142,0.0,0.0,64,0.00,,,0.00,WeatherCatV1.15B25,2013-06-27 03:52:00,
2013-06-26 22:57:00,83.8,71.2,29.80,SE,142,0.0,0.0,66,0.00,,,0.00,WeatherCatV1.15B25,2013-06-27 03:57:00,
2013-06-26 23:01:00,83.7,70.7,29.81,SE,142,0.0,0.0,65,0.00,,,0.00,WeatherCatV1.15B25,2013-06-27 04:01:00,
2013-06-26 23:06:00,83.5,70.9,29.81,SE,134,0.0,0.0,66,0.00,,,0.00,WeatherCatV1.15B25,2013-06-27 04:06:00,
2013-06-26 23:11:00,83.3,70.7,29.81,SE,130,0.0,0.0,66,0.00,,,0.00,WeatherCatV1.15B25,2013-06-27 04:11:00,
2013-06-26 23:16:00,83.2,70.6,29.81,SSW,210,0.0,1.0,66,0.00,,,0.00,WeatherCatV1.15B25,2013-06-27 04:16:00,
2013-06-26 23:21:00,83.0,70.4,29.81,SSW,209,0.0,0.0,66,0.00,,,0.00,WeatherCatV1.15B25,2013-06-27 04:21:00,
2013-06-26 23:26:00,82.9,70.3,29.81,SSE,150,0.0,0.0,66,0.00,,,0.00,WeatherCatV1.15B25,2013-06-27 04:26:00,
2013-06-26 23:31:00,82.7,70.6,29.81,SSE,149,0.0,0.0,67,0.00,,,0.00,WeatherCatV1.15B25,2013-06-27 04:31:00,
2013-06-26 23:36:00,82.6,70.5,29.81,SSE,149,0.0,0.0,67,0.00,,,0.00,WeatherCatV1.15B25,2013-06-27 04:36:00,
2013-06-26 23:41:00,82.4,70.8,29.81,SSE,148,0.0,0.0,68,0.00,,,0.00,WeatherCatV1.15B25,2013-06-27 04:41:00,
2013-06-26 23:46:00,82.3,70.7,29.81,SE,135,0.0,0.0,68,0.00,,,0.00,WeatherCatV1.15B25,2013-06-27 04:46:00,
2013-06-26 23:51:00,82.2,70.6,29.81,South,178,0.0,3.0,68,0.00,,,0.00,WeatherCatV1.15B25,2013-06-27 04:51:00,
2013-06-26 23:56:00,82.1,70.5,29.81,South,178,0.0,0.0,68,0.00,,,0.00,WeatherCatV1.15B25,2013-06-27 04:56:00,